Starlink 5842

operational
NORAD ID: 56491 Int'l Des: 2023-064 Owner: SPXS Country: US Constellation: starlink
LEOCIRCULAR

Über Starlink 5842

Beschreibung wird geladen...

Live-Position

3D-Globus wird geladen...

Nächste Überflüge

Höhenverlauf

Altitude vs Time

uPlot chart will show altitude changes over time

Zweizeiliger Elementsatz

1 56491U 23064AV 26035.71772689 -.00000578 00000-0 -40610-4 0 9990
2 56491 69.9986 187.5866 0003093 270.4914 89.5891 14.98341705151297
Epoch: 4. Feb. 2026 • Age: 9 hours

Aktueller Status

Höhe 575.0 km
Geschwindigkeit 7.58 km/s
Subsatellitenpunkt 21.25°N, 165.71°W
Startdatum 10. Mai 2023
Alter 2.7 years
Typ internet

Technische Details

Klassifizierung Payload
Masse 305.00 kg
Trockenmasse 290.00 kg
Gesamtmasse 305.00 kg
Länge 0.20 m
Durchmesser 2.80 m
Spannweite 9.00 m
Form Box + pan
Hersteller SPXS
Bus-Typ Starlink
Phasenstatus In Orbit
Besitzer/Staat SPXS/US

Große Konstellationen

Loading constellations...